Location: Oberkirch
(48.5323°N, 8.0787°E)
Time: 19:05:07
(UTC+00:00)

Tiros 1 despin weight - Pass Details

Date: 08 February 2026
Orbit: 556 x 593 km, 48.2° (Epoch: 11 March)

Event Time Altitude Azimuth Distance (km) Brightness Sun altitude
Rises 18:23:00 0° 225° (SW) 2,722 ? -17.8°
Reaches altitude 10° 18:25:22 10° 217° (SW) 1,831 ? -18.2°
Maximum altitude 18:29:10 34° 151° (SSE) 918 ? -18.8°
Enters shadow 18:29:35 34° 138° (SE) 934 ? -18.9°
